Retour au catalogue

SPAINSAT NG II

ActifMilitaireHEO
NORAD 66144·PAYLOAD·🇪🇸 Spain

Lancé Oct 24, 2025 depuis Cape Canaveral Space Force Station

Loading…

Prochains Passages (prochaines 24 heures)

TLE

FraisSource: Space-Track

Époque: Sep 13, 2026, 18:00 UTC

1 66144U 25239A   26256.75068410 -.00000016  00000-0  00000-0 0  9992
2 66144  12.8715 213.8217 7646837 231.2720  32.4627  0.96596973  3190

Suivez SPAINSAT NG II en temps réel avec AllMySat

Download on the App Store